Wetterdaten: aktuell Dienstag, 19.02.2019 04:26
Datum Zeit Temp. I. Temp. 2m Temp. 5cm Feuchte I. Feuchte 2m Luftdruck Regen Wind Richtung Richtung Taupunkt Windchill Windben
19.02.2019 04:26 17,4 C 1,1 C 0,1 C 52 % 83 % 1017,8 hPa 0,0 l/m 2,3 km/h (1 Bft) W-SW 247 -1,5 C 1,1 C 4,1 km/h (1 Bft)
19.02.2019 04:24 17,4 C 1,0 C 0,1 C 52 % 83 % 1017,8 hPa 0,0 l/m 2,1 km/h (1 Bft) W-SW 247 -1,6 C 1,0 C 4,1 km/h (1 Bft)
19.02.2019 04:22 17,4 C 0,9 C 0,1 C 52 % 82 % 1017,8 hPa 0,0 l/m 2,1 km/h (1 Bft) W-SW 247 -1,8 C 0,9 C 3,3 km/h (1 Bft)
19.02.2019 04:20 17,4 C 1,0 C 0,1 C 51 % 83 % 1017,8 hPa 0,0 l/m 2,4 km/h (1 Bft) W 270 -1,6 C 1,0 C 5,4 km/h (1 Bft)
19.02.2019 04:18 17,4 C 1,1 C 0,1 C 52 % 82 % 1017,8 hPa 0,0 l/m 2,4 km/h (1 Bft) W-NW 292 -1,6 C 1,1 C 5,4 km/h (1 Bft)
19.02.2019 04:16 17,4 C 1,1 C 0,1 C 52 % 82 % 1017,8 hPa 0,0 l/m 2,1 km/h (1 Bft) W 270 -1,6 C 1,1 C 3,7 km/h (1 Bft)
19.02.2019 04:14 17,4 C 1,1 C 0,1 C 51 % 82 % 1017,8 hPa 0,0 l/m 1,9 km/h (1 Bft) W-NW 292 -1,6 C 1,1 C 3,5 km/h (1 Bft)
19.02.2019 04:12 17,4 C 1,1 C 0,1 C 52 % 82 % 1017,8 hPa 0,0 l/m 1,8 km/h (1 Bft) W 270 -1,6 C 1,1 C 4,1 km/h (1 Bft)
19.02.2019 04:10 17,4 C 1,2 C 0,1 C 52 % 82 % 1017,8 hPa 0,0 l/m 1,6 km/h (1 Bft) W-SW 247 -1,5 C 1,2 C 5,0 km/h (1 Bft)
19.02.2019 04:08 17,4 C 1,3 C 0,1 C 52 % 82 % 1017,8 hPa 0,0 l/m 1,6 km/h (1 Bft) SW 225 -1,4 C 1,3 C 5,0 km/h (1 Bft)
19.02.2019 04:06 17,4 C 1,2 C 0,1 C 52 % 82 % 1017,8 hPa 0,0 l/m 1,4 km/h (1 Bft) W-SW 247 -1,5 C 1,2 C 4,2 km/h (1 Bft)
19.02.2019 04:04 17,4 C 1,2 C 0,1 C 51 % 82 % 1017,8 hPa 0,0 l/m 1,8 km/h (1 Bft) W 270 -1,5 C 1,2 C 4,2 km/h (1 Bft)
19.02.2019 04:02 17,4 C 1,2 C 0,1 C 51 % 82 % 1017,8 hPa 0,0 l/m 2,1 km/h (1 Bft) W-SW 247 -1,5 C 1,2 C 4,4 km/h (1 Bft)
19.02.2019 04:00 17,4 C 1,0 C 0,3 C 51 % 82 % 1017,8 hPa 0,0 l/m 1,9 km/h (1 Bft) S-SW 202 -1,7 C 1,0 C 4,4 km/h (1 Bft)
19.02.2019 03:58 17,4 C 1,2 C 0,3 C 51 % 82 % 1017,8 hPa 0,0 l/m 1,6 km/h (1 Bft) NW 315 -1,5 C 1,2 C 3,3 km/h (1 Bft)
19.02.2019 03:56 17,5 C 1,5 C 0,3 C 51 % 82 % 1017,8 hPa 0,0 l/m 1,6 km/h (1 Bft) W-SW 247 -1,2 C 1,5 C 3,3 km/h (1 Bft)
19.02.2019 03:54 17,4 C 1,5 C 0,3 C 51 % 82 % 1017,8 hPa 0,0 l/m 1,3 km/h (1 Bft) W 270 -1,2 C 1,5 C 3,9 km/h (1 Bft)
19.02.2019 03:52 17,4 C 1,1 C 0,3 C 52 % 82 % 1017,7 hPa 0,0 l/m 1,1 km/h (1 Bft) SW 225 -1,6 C 1,1 C 3,9 km/h (1 Bft)
19.02.2019 03:50 17,5 C 1,0 C 0,3 C 51 % 82 % 1017,7 hPa 0,0 l/m 1,3 km/h (1 Bft) W 270 -1,7 C 1,0 C 0,0 km/h (0 Bft)
19.02.2019 03:48 17,5 C 1,1 C 0,3 C 51 % 82 % 1017,7 hPa 0,0 l/m 1,1 km/h (1 Bft) W 270 -1,6 C 1,1 C 2,1 km/h (1 Bft)
19.02.2019 03:46 17,5 C 0,9 C 0,3 C 51 % 82 % 1017,7 hPa 0,0 l/m 1,1 km/h (1 Bft) O 90 -1,8 C 0,9 C 2,5 km/h (1 Bft)
19.02.2019 03:44 17,5 C 0,9 C 0,3 C 51 % 81 % 1017,7 hPa 0,0 l/m 1,1 km/h (1 Bft) W 270 -2,0 C 0,9 C 2,5 km/h (1 Bft)
19.02.2019 03:42 17,5 C 1,0 C 0,3 C 51 % 81 % 1017,7 hPa 0,0 l/m 1,0 km/h (0 Bft) W 270 -1,9 C 1,0 C 3,3 km/h (1 Bft)
19.02.2019 03:40 17,5 C 1,0 C 0,3 C 51 % 81 % 1017,7 hPa 0,0 l/m 0,5 km/h (0 Bft) W 270 -1,9 C 1,0 C 3,3 km/h (1 Bft)
19.02.2019 03:38 17,5 C 1,0 C 0,3 C 51 % 81 % 1017,7 hPa 0,0 l/m 0,5 km/h (0 Bft) W 270 -1,9 C 1,0 C 0,0 km/h (0 Bft)
19.02.2019 03:36 17,5 C 1,0 C 0,3 C 51 % 81 % 1017,7 hPa 0,0 l/m 0,8 km/h (0 Bft) W-NW 292 -1,9 C 1,0 C 2,1 km/h (1 Bft)
19.02.2019 03:34 17,5 C 1,0 C 0,3 C 51 % 81 % 1017,7 hPa 0,0 l/m 1,1 km/h (1 Bft) W-NW 292 -1,9 C 1,0 C 2,1 km/h (1 Bft)
19.02.2019 03:32 17,5 C 1,0 C 0,3 C 52 % 81 % 1018,2 hPa 0,0 l/m 1,4 km/h (1 Bft) W 270 -1,9 C 1,0 C 0,0 km/h (0 Bft)
19.02.2019 03:30 17,5 C 1,0 C 0,3 C 51 % 81 % 1018,2 hPa 0,0 l/m 1,8 km/h (1 Bft) W-NW 292 -1,9 C 1,0 C 2,9 km/h (1 Bft)
19.02.2019 03:28 17,5 C 1,0 C 0,3 C 52 % 81 % 1018,2 hPa 0,0 l/m 2,3 km/h (1 Bft) W-NW 292 -1,9 C 1,0 C 2,9 km/h (1 Bft)
19.02.2019 03:26 17,5 C 1,1 C 0,3 C 51 % 81 % 1018,2 hPa 0,0 l/m 2,6 km/h (1 Bft) W 270 -1,8 C 1,1 C 2,9 km/h (1 Bft)
19.02.2019 03:24 17,5 C 1,2 C 0,3 C 51 % 81 % 1018,2 hPa 0,0 l/m 2,7 km/h (1 Bft) W-NW 292 -1,7 C 1,2 C 3,3 km/h (1 Bft)
19.02.2019 03:22 17,5 C 1,3 C 0,3 C 51 % 81 % 1018,2 hPa 0,0 l/m 2,4 km/h (1 Bft) NW 315 -1,6 C 1,3 C 3,9 km/h (1 Bft)
19.02.2019 03:20 17,5 C 1,5 C 0,4 C 51 % 81 % 1018,2 hPa 0,0 l/m 2,1 km/h (1 Bft) NW 315 -1,4 C 1,5 C 3,9 km/h (1 Bft)
19.02.2019 03:18 17,5 C 1,3 C 0,4 C 51 % 81 % 1018,2 hPa 0,0 l/m 1,6 km/h (1 Bft) W-NW 292 -1,6 C 1,3 C 4,1 km/h (1 Bft)
19.02.2019 03:16 17,5 C 1,3 C 0,4 C 51 % 80 % 1018,2 hPa 0,0 l/m 1,3 km/h (1 Bft) NW 315 -1,8 C 1,3 C 4,1 km/h (1 Bft)
19.02.2019 03:14 17,5 C 1,5 C 0,4 C 51 % 80 % 1018,2 hPa 0,0 l/m 0,8 km/h (0 Bft) NW 315 -1,6 C 1,5 C 3,1 km/h (1 Bft)
19.02.2019 03:12 17,5 C 1,0 C 0,4 C 51 % 80 % 1017,6 hPa 0,0 l/m 0,5 km/h (0 Bft) NW 315 -2,1 C 1,0 C 0,0 km/h (0 Bft)
19.02.2019 03:10 17,5 C 1,0 C 0,4 C 51 % 80 % 1017,6 hPa 0,0 l/m 0,5 km/h (0 Bft) N-NW 337 -2,1 C 1,0 C 0,0 km/h (0 Bft)
19.02.2019 03:08 17,5 C 1,0 C 0,4 C 51 % 80 % 1017,6 hPa 0,0 l/m 0,5 km/h (0 Bft) N-NW 337 -2,1 C 1,0 C 0,0 km/h (0 Bft)
19.02.2019 03:06 17,5 C 1,0 C 0,4 C 51 % 80 % 1017,6 hPa 0,0 l/m 0,5 km/h (0 Bft) N-NW 337 -2,1 C 1,0 C 0,0 km/h (0 Bft)
19.02.2019 03:04 17,5 C 1,0 C 0,4 C 51 % 80 % 1017,6 hPa 0,0 l/m 0,5 km/h (0 Bft) N-NW 337 -2,1 C 1,0 C 0,0 km/h (0 Bft)
19.02.2019 03:02 17,6 C 1,0 C 0,4 C 51 % 80 % 1017,6 hPa 0,0 l/m 0,5 km/h (0 Bft) N-NW 337 -2,1 C 1,0 C 0,0 km/h (0 Bft)
19.02.2019 03:00 17,5 C 1,1 C 0,4 C 51 % 80 % 1017,6 hPa 0,0 l/m 0,8 km/h (0 Bft) NW 315 -2,0 C 1,1 C 0,0 km/h (0 Bft)
19.02.2019 02:58 17,6 C 1,3 C 0,4 C 51 % 80 % 1017,6 hPa 0,0 l/m 1,3 km/h (1 Bft) W-NW 292 -1,8 C 1,3 C 2,1 km/h (1 Bft)
19.02.2019 02:56 17,5 C 1,8 C 0,4 C 51 % 80 % 1017,6 hPa 0,0 l/m 1,6 km/h (1 Bft) W-NW 292 -1,3 C 1,8 C 2,1 km/h (1 Bft)
19.02.2019 02:54 17,6 C 1,9 C 0,4 C 51 % 80 % 1017,6 hPa 0,0 l/m 2,1 km/h (1 Bft) W-NW 292 -1,2 C 1,9 C 2,7 km/h (1 Bft)
19.02.2019 02:52 17,5 C 2,1 C 0,4 C 51 % 80 % 1017,9 hPa 0,0 l/m 2,4 km/h (1 Bft) NW 315 -1,0 C 2,1 C 3,1 km/h (1 Bft)
19.02.2019 02:50 17,6 C 2,1 C 0,4 C 51 % 80 % 1017,9 hPa 0,0 l/m 2,4 km/h (1 Bft) NW 315 -1,0 C 2,1 C 3,5 km/h (1 Bft)
19.02.2019 02:48 17,6 C 1,9 C 0,4 C 51 % 80 % 1017,9 hPa 0,0 l/m 2,3 km/h (1 Bft) NW 315 -1,2 C 1,9 C 3,5 km/h (1 Bft)
19.02.2019 02:46 17,6 C 1,8 C 0,4 C 51 % 80 % 1017,9 hPa 0,0 l/m 1,9 km/h (1 Bft) W 270 -1,3 C 1,8 C 4,1 km/h (1 Bft)
19.02.2019 02:44 17,6 C 1,8 C 0,4 C 51 % 79 % 1017,9 hPa 0,0 l/m 1,6 km/h (1 Bft) NW 315 -1,4 C 1,8 C 4,1 km/h (1 Bft)
19.02.2019 02:42 17,6 C 1,8 C 0,4 C 51 % 79 % 1017,9 hPa 0,0 l/m 1,0 km/h (0 Bft) N-NW 337 -1,4 C 1,8 C 2,3 km/h (1 Bft)
19.02.2019 02:40 17,6 C 1,8 C 0,4 C 51 % 79 % 1017,9 hPa 0,0 l/m 1,1 km/h (1 Bft) N-NO 22 -1,4 C 1,8 C 2,3 km/h (1 Bft)
19.02.2019 02:38 17,6 C 1,7 C 0,4 C 51 % 79 % 1017,9 hPa 0,0 l/m 1,3 km/h (1 Bft) N 360 -1,5 C 1,7 C 1,9 km/h (1 Bft)
19.02.2019 02:36 17,6 C 1,7 C 0,4 C 51 % 79 % 1017,9 hPa 0,0 l/m 1,4 km/h (1 Bft) N-NW 337 -1,5 C 1,7 C 0,0 km/h (0 Bft)
19.02.2019 02:34 17,6 C 1,8 C 0,4 C 51 % 79 % 1017,9 hPa 0,0 l/m 1,9 km/h (1 Bft) N-NW 337 -1,4 C 1,8 C 2,9 km/h (1 Bft)
19.02.2019 02:32 17,6 C 1,8 C 0,4 C 51 % 79 % 1017,9 hPa 0,0 l/m 2,9 km/h (1 Bft) N 360 -1,4 C 1,8 C 2,9 km/h (1 Bft)
19.02.2019 02:30 17,6 C 1,6 C 0,4 C 51 % 79 % 1017,9 hPa 0,0 l/m 3,1 km/h (1 Bft) N 360 -1,6 C 1,6 C 3,1 km/h (1 Bft)
19.02.2019 02:28 17,6 C 1,5 C 0,4 C 51 % 79 % 1017,9 hPa 0,0 l/m 3,2 km/h (1 Bft) N 360 -1,7 C 1,5 C 4,2 km/h (1 Bft)
19.02.2019 02:26 17,6 C 1,3 C 0,4 C 51 % 79 % 1017,9 hPa 0,0 l/m 3,2 km/h (1 Bft) N-NO 22 -1,9 C 1,3 C 4,2 km/h (1 Bft)
19.02.2019 02:24 17,6 C 0,9 C 0,4 C 51 % 79 % 1017,9 hPa 0,0 l/m 3,2 km/h (1 Bft) N-NW 337 -2,3 C 0,9 C 4,2 km/h (1 Bft)
19.02.2019 02:22 17,6 C 0,4 C 0,4 C 51 % 79 % 1017,9 hPa 0,0 l/m 3,1 km/h (1 Bft) NW 315 -2,8 C 0,4 C 4,2 km/h (1 Bft)
19.02.2019 02:20 17,6 C 1,0 C 0,4 C 51 % 79 % 1017,9 hPa 0,0 l/m 3,1 km/h (1 Bft) N-NW 337 -2,2 C 1,0 C 4,1 km/h (1 Bft)
19.02.2019 02:18 17,6 C 1,2 C 0,4 C 51 % 79 % 1017,9 hPa 0,0 l/m 3,1 km/h (1 Bft) N-NW 337 -2,0 C 1,2 C 4,8 km/h (1 Bft)
19.02.2019 02:16 17,6 C 0,9 C 0,4 C 51 % 79 % 1017,9 hPa 0,0 l/m 3,1 km/h (1 Bft) N 360 -2,3 C 0,9 C 4,8 km/h (1 Bft)
19.02.2019 02:14 17,6 C 1,6 C 0,4 C 51 % 79 % 1017,9 hPa 0,0 l/m 3,1 km/h (1 Bft) N-NW 337 -1,6 C 1,6 C 4,1 km/h (1 Bft)
19.02.2019 02:12 17,6 C 1,6 C 0,4 C 51 % 79 % 1017,8 hPa 0,0 l/m 3,1 km/h (1 Bft) N-NW 337 -1,6 C 1,6 C 4,1 km/h (1 Bft)
19.02.2019 02:10 17,6 C 1,7 C 0,4 C 51 % 78 % 1017,8 hPa 0,0 l/m 3,4 km/h (1 Bft) NW 315 -1,7 C 1,7 C 4,1 km/h (1 Bft)
19.02.2019 02:08 17,6 C 1,5 C 0,4 C 51 % 78 % 1017,8 hPa 0,0 l/m 3,5 km/h (1 Bft) NW 315 -1,9 C 1,5 C 3,9 km/h (1 Bft)
19.02.2019 02:06 17,6 C 1,2 C 0,4 C 51 % 78 % 1017,8 hPa 0,0 l/m 3,5 km/h (1 Bft) NW 315 -2,2 C 1,2 C 4,4 km/h (1 Bft)
19.02.2019 02:04 17,6 C 0,7 C 0,4 C 51 % 78 % 1017,8 hPa 0,0 l/m 3,5 km/h (1 Bft) N-NW 337 -2,7 C 0,7 C 5,0 km/h (1 Bft)
19.02.2019 02:02 17,6 C 1,1 C 0,4 C 51 % 78 % 1017,8 hPa 0,0 l/m 3,4 km/h (1 Bft) N-NW 337 -2,3 C 1,1 C 5,0 km/h (1 Bft)
19.02.2019 02:00 17,6 C 0,7 C 0,4 C 51 % 78 % 1017,8 hPa 0,0 l/m 3,2 km/h (1 Bft) N-NO 22 -2,7 C 0,7 C 4,6 km/h (1 Bft)
19.02.2019 01:58 17,6 C 0,7 C 0,4 C 51 % 78 % 1017,8 hPa 0,0 l/m 3,2 km/h (1 Bft) N-NW 337 -2,7 C 0,7 C 4,6 km/h (1 Bft)
19.02.2019 01:56 17,6 C 1,1 C 0,4 C 51 % 78 % 1017,8 hPa 0,0 l/m 3,4 km/h (1 Bft) N-NW 337 -2,3 C 1,1 C 3,9 km/h (1 Bft)
19.02.2019 01:54 17,6 C 0,9 C 0,4 C 51 % 78 % 1017,8 hPa 0,0 l/m 3,9 km/h (1 Bft) N-NW 337 -2,5 C 0,9 C 5,0 km/h (1 Bft)
19.02.2019 01:52 17,6 C 0,4 C 0,4 C 51 % 78 % 1017,9 hPa 0,0 l/m 4,0 km/h (1 Bft) N-NW 337 -3,0 C 0,4 C 5,4 km/h (1 Bft)
19.02.2019 01:50 17,6 C 0,7 C 0,4 C 51 % 79 % 1017,9 hPa 0,0 l/m 4,0 km/h (1 Bft) N 360 -2,5 C 0,7 C 5,4 km/h (1 Bft)
19.02.2019 01:48 17,6 C 2,1 C 0,4 C 51 % 78 % 1017,9 hPa 0,0 l/m 4,2 km/h (1 Bft) NO 45 -1,3 C 2,1 C 5,6 km/h (1 Bft)
19.02.2019 01:46 17,6 C 1,8 C 0,4 C 51 % 78 % 1017,9 hPa 0,0 l/m 4,0 km/h (1 Bft) N-NO 22 -1,6 C 1,8 C 6,0 km/h (2 Bft)
19.02.2019 01:44 17,6 C 1,1 C 0,4 C 51 % 78 % 1017,9 hPa 0,0 l/m 3,9 km/h (1 Bft) NO 45 -2,3 C 1,1 C 6,0 km/h (2 Bft)
19.02.2019 01:42 17,6 C 1,1 C 0,4 C 51 % 78 % 1017,9 hPa 0,0 l/m 4,0 km/h (1 Bft) NO 45 -2,3 C 1,1 C 5,2 km/h (1 Bft)
19.02.2019 01:40 17,6 C 1,2 C 0,4 C 51 % 78 % 1017,9 hPa 0,0 l/m 4,3 km/h (1 Bft) O-NO 67 -2,2 C 1,2 C 4,6 km/h (1 Bft)
19.02.2019 01:38 17,6 C 2,1 C 0,3 C 51 % 78 % 1017,9 hPa 0,0 l/m 4,5 km/h (1 Bft) N-NW 337 -1,3 C 2,1 C 4,8 km/h (1 Bft)
19.02.2019 01:36 17,6 C 2,2 C 0,4 C 51 % 78 % 1017,9 hPa 0,0 l/m 4,5 km/h (1 Bft) NW 315 -1,2 C 2,2 C 5,0 km/h (1 Bft)
19.02.2019 01:34 17,6 C 2,2 C 0,4 C 51 % 78 % 1017,9 hPa 0,0 l/m 4,5 km/h (1 Bft) NW 315 -1,2 C 2,2 C 5,8 km/h (2 Bft)
19.02.2019 01:32 17,6 C 1,8 C 0,4 C 51 % 77 % 1017,9 hPa 0,0 l/m 4,3 km/h (1 Bft) NW 315 -1,8 C 1,8 C 5,8 km/h (2 Bft)
19.02.2019 01:30 17,6 C 1,7 C 0,4 C 51 % 77 % 1017,9 hPa 0,0 l/m 4,2 km/h (1 Bft) NW 315 -1,9 C 1,7 C 6,6 km/h (2 Bft)
19.02.2019 01:28 17,6 C 1,3 C 0,4 C 51 % 77 % 1017,9 hPa 0,0 l/m 4,0 km/h (1 Bft) NW 315 -2,3 C 1,3 C 6,6 km/h (2 Bft)
19.02.2019 01:26 17,6 C 0,3 C 0,4 C 51 % 77 % 1017,9 hPa 0,0 l/m 4,0 km/h (1 Bft) NW 315 -3,2 C 0,3 C 4,4 km/h (1 Bft)
19.02.2019 01:24 17,6 C 0,9 C 0,4 C 51 % 77 % 1017,9 hPa 0,0 l/m 4,2 km/h (1 Bft) N 360 -2,7 C 0,9 C 5,0 km/h (1 Bft)
19.02.2019 01:22 17,6 C 1,0 C 0,4 C 51 % 77 % 1017,9 hPa 0,0 l/m 4,3 km/h (1 Bft) N 360 -2,6 C 1,0 C 5,6 km/h (1 Bft)
19.02.2019 01:20 17,6 C 1,5 C 0,4 C 51 % 77 % 1017,9 hPa 0,0 l/m 4,5 km/h (1 Bft) N-NW 337 -2,1 C 1,5 C 5,6 km/h (1 Bft)
19.02.2019 01:18 17,6 C 1,3 C 0,4 C 51 % 77 % 1017,9 hPa 0,0 l/m 4,3 km/h (1 Bft) NW 315 -2,3 C 1,3 C 5,6 km/h (1 Bft)
19.02.2019 01:16 17,6 C 1,8 C 0,4 C 51 % 77 % 1017,9 hPa 0,0 l/m 4,3 km/h (1 Bft) NW 315 -1,8 C 1,8 C 5,4 km/h (1 Bft)
19.02.2019 01:14 17,7 C 1,6 C 0,4 C 51 % 76 % 1017,9 hPa 0,0 l/m 4,3 km/h (1 Bft) N-NW 337 -2,2 C 1,6 C 6,8 km/h (2 Bft)
19.02.2019 01:12 17,7 C 1,2 C 0,4 C 51 % 76 % 1017,8 hPa 0,0 l/m 4,3 km/h (1 Bft) NW 315 -2,5 C 1,2 C 5,6 km/h (1 Bft)
19.02.2019 01:10 17,7 C 1,0 C 0,4 C 51 % 76 % 1017,8 hPa 0,0 l/m 4,3 km/h (1 Bft) NW 315 -2,7 C 1,0 C 5,2 km/h (1 Bft)
19.02.2019 01:08 17,7 C 0,7 C 0,3 C 51 % 76 % 1017,8 hPa 0,0 l/m 4,5 km/h (1 Bft) N 360 -3,0 C 0,7 C 5,0 km/h (1 Bft)
19.02.2019 01:06 17,7 C 0,9 C 0,4 C 51 % 76 % 1017,8 hPa 0,0 l/m 4,7 km/h (1 Bft) NW 315 -2,8 C -0,4 C 6,0 km/h (2 Bft)
19.02.2019 01:04 17,7 C 1,3 C 0,4 C 51 % 76 % 1017,8 hPa 0,0 l/m 4,7 km/h (1 Bft) NW 315 -2,5 C 0,0 C 6,6 km/h (2 Bft)
19.02.2019 01:02 17,7 C 0,4 C 0,4 C 51 % 76 % 1017,8 hPa 0,0 l/m 4,3 km/h (1 Bft) NW 315 -3,3 C 0,4 C 6,2 km/h (2 Bft)
19.02.2019 01:00 17,7 C 0,9 C 0,3 C 51 % 76 % 1017,8 hPa 0,0 l/m 4,2 km/h (1 Bft) N-NW 337 -2,8 C 0,9 C 6,2 km/h (2 Bft)
19.02.2019 00:58 17,7 C 1,8 C 0,4 C 51 % 76 % 1017,8 hPa 0,0 l/m 3,9 km/h (1 Bft) N 360 -2,0 C 1,8 C 6,2 km/h (2 Bft)
19.02.2019 00:56 17,7 C 0,8 C 0,3 C 51 % 76 % 1017,8 hPa 0,0 l/m 3,7 km/h (1 Bft) N-NW 337 -2,9 C 0,8 C 5,8 km/h (2 Bft)
19.02.2019 00:54 17,7 C 1,7 C 0,3 C 51 % 76 % 1017,8 hPa 0,0 l/m 3,5 km/h (1 Bft) N-NW 337 -2,1 C 1,7 C 5,2 km/h (1 Bft)
19.02.2019 00:52 17,7 C 2,5 C 0,4 C 51 % 77 % 1017,9 hPa 0,0 l/m 3,4 km/h (1 Bft) N 360 -1,1 C 2,5 C 4,2 km/h (1 Bft)
19.02.2019 00:50 17,7 C 2,4 C 0,3 C 51 % 77 % 1017,9 hPa 0,0 l/m 3,5 km/h (1 Bft) N-NO 22 -1,2 C 2,4 C 4,6 km/h (1 Bft)
19.02.2019 00:48 17,7 C 2,4 C 0,3 C 51 % 76 % 1017,9 hPa 0,0 l/m 3,7 km/h (1 Bft) N 360 -1,4 C 2,4 C 4,6 km/h (1 Bft)
19.02.2019 00:46 17,7 C 2,3 C 0,4 C 51 % 76 % 1017,9 hPa 0,0 l/m 3,9 km/h (1 Bft) N-NO 22 -1,5 C 2,3 C 4,6 km/h (1 Bft)
19.02.2019 00:44 17,8 C 2,0 C 0,4 C 51 % 76 % 1017,9 hPa 0,0 l/m 4,0 km/h (1 Bft) N-NO 22 -1,8 C 2,0 C 5,2 km/h (1 Bft)
19.02.2019 00:42 17,7 C 1,9 C 0,4 C 51 % 76 % 1017,9 hPa 0,0 l/m 4,2 km/h (1 Bft) N-NO 22 -1,9 C 1,9 C 5,2 km/h (1 Bft)
19.02.2019 00:40 17,7 C 2,0 C 0,3 C 51 % 76 % 1017,9 hPa 0,0 l/m 4,3 km/h (1 Bft) NO 45 -1,8 C 2,0 C 4,8 km/h (1 Bft)
19.02.2019 00:38 17,7 C 2,2 C 0,3 C 51 % 76 % 1017,9 hPa 0,0 l/m 4,5 km/h (1 Bft) NO 45 -1,6 C 2,2 C 5,6 km/h (1 Bft)
19.02.2019 00:36 17,8 C 2,3 C 0,3 C 51 % 75 % 1017,9 hPa 0,0 l/m 4,3 km/h (1 Bft) NO 45 -1,7 C 2,3 C 6,0 km/h (2 Bft)
19.02.2019 00:34 17,7 C 2,3 C 0,3 C 51 % 75 % 1017,9 hPa 0,0 l/m 4,2 km/h (1 Bft) NO 45 -1,7 C 2,3 C 6,4 km/h (2 Bft)
19.02.2019 00:32 17,7 C 2,3 C 0,3 C 51 % 75 % 1017,9 hPa 0,0 l/m 3,9 km/h (1 Bft) N-NO 22 -1,7 C 2,3 C 6,2 km/h (2 Bft)
19.02.2019 00:30 17,8 C 2,3 C 0,3 C 51 % 75 % 1017,9 hPa 0,0 l/m 3,5 km/h (1 Bft) N-NO 22 -1,7 C 2,3 C 6,2 km/h (2 Bft)
19.02.2019 00:28 17,7 C 2,3 C 0,3 C 51 % 75 % 1017,9 hPa 0,0 l/m 3,4 km/h (1 Bft) N-NO 22 -1,7 C 2,3 C 5,0 km/h (1 Bft)
19.02.2019 00:26 17,8 C 2,4 C 0,2 C 51 % 75 % 1017,9 hPa 0,0 l/m 3,4 km/h (1 Bft) NO 45 -1,6 C 2,4 C 4,6 km/h (1 Bft)
19.02.2019 00:24 17,8 C 2,6 C 0,3 C 51 % 74 % 1017,9 hPa 0,0 l/m 3,5 km/h (1 Bft) N-NO 22 -1,6 C 2,6 C 5,2 km/h (1 Bft)
19.02.2019 00:22 17,8 C 2,9 C 0,3 C 51 % 73 % 1017,9 hPa 0,0 l/m 3,7 km/h (1 Bft) N-NO 22 -1,5 C 2,9 C 3,9 km/h (1 Bft)
19.02.2019 00:20 17,8 C 2,8 C 0,3 C 51 % 73 % 1017,9 hPa 0,0 l/m 3,9 km/h (1 Bft) N-NO 22 -1,5 C 2,8 C 4,2 km/h (1 Bft)
19.02.2019 00:18 17,8 C 3,0 C 0,3 C 51 % 73 % 1017,9 hPa 0,0 l/m 4,0 km/h (1 Bft) N-NO 22 -1,4 C 3,0 C 5,2 km/h (1 Bft)
19.02.2019 00:16 17,8 C 2,9 C 0,3 C 51 % 73 % 1017,9 hPa 0,0 l/m 4,2 km/h (1 Bft) N-NO 22 -1,5 C 2,9 C 5,2 km/h (1 Bft)
19.02.2019 00:14 17,8 C 2,6 C 0,2 C 51 % 73 % 1017,9 hPa 0,0 l/m 4,2 km/h (1 Bft) N-NO 22 -1,7 C 2,6 C 5,2 km/h (1 Bft)
19.02.2019 00:12 17,8 C 2,3 C 0,2 C 51 % 73 % 1018,0 hPa 0,0 l/m 4,0 km/h (1 Bft) N-NO 22 -2,0 C 2,3 C 4,8 km/h (1 Bft)
19.02.2019 00:10 17,8 C 2,3 C 0,2 C 51 % 73 % 1018,0 hPa 0,0 l/m 3,5 km/h (1 Bft) N 360 -2,0 C 2,3 C 4,1 km/h (1 Bft)
19.02.2019 00:08 17,8 C 2,3 C 0,2 C 51 % 73 % 1018,0 hPa 0,0 l/m 3,5 km/h (1 Bft) N 360 -2,0 C 2,3 C 4,1 km/h (1 Bft)
19.02.2019 00:06 17,8 C 2,3 C 0,2 C 51 % 73 % 1018,0 hPa 0,0 l/m 3,5 km/h (1 Bft) N 360 -2,0 C 2,3 C 4,1 km/h (1 Bft)
19.02.2019 00:04 17,8 C 2,3 C 0,2 C 51 % 73 % 1018,0 hPa 0,0 l/m 3,5 km/h (1 Bft) N 360 -2,0 C 2,3 C 4,1 km/h (1 Bft)
19.02.2019 00:02 17,8 C 2,3 C 0,2 C 51 % 73 % 1018,0 hPa 0,0 l/m 3,5 km/h (1 Bft) N 360 -2,0 C 2,3 C 4,2 km/h (1 Bft)
19.02.2019 00:00 17,8 C 2,4 C 0,2 C 51 % 73 % 1018,0 hPa 0,0 l/m 3,5 km/h (1 Bft) N 360 -1,9 C 2,4 C 4,2 km/h (1 Bft)
_ Min-Zeit 03:52 01:26 04:02 00:00 00:00 02:54 - 03:02 - - 01:02 01:06 02:36
Minimum _ 17,4 C 0,3 C 0,1 C 51 % 73 % 1017,6 hPa - 0,5 km/h (0 Bft) - - -3,3 C -0,4 C 0,0 km/h (0 Bft)
_ Max-Zeit 00:00 00:18 00:42 03:28 04:20 03:14 00:00 01:04 - - 02:50 00:18 01:14
Maximum _ 17,8 C 3,0 C 0,4 C 52 % 83 % 1018,2 hPa 0,0 l/m 4,7 km/h
NW (1 Bft)
- - -1,0 C 3,0 C 6,8 km/h
N-NW (2 Bft)
Durchschnitt _ 17,6 C 1,5 C 0,3 C 51 % 78 % 1017,9 hPa #0,0 l/m 2,8 km/h (1 Bft) NW - -1,9 C 1,5 C 4,1 km/h (1 Bft)